Regional Weather Roundup
Issued by NWS

Home | Current Version | Previous Version | Text Only | Print | Product List | Glossary On
Versions: 1 2 3 4 5 6 7 8 9 10 11 12 13 14 15 16 17 18 19 20 21 22 23 24 25 26 27 28 29 30 31 32 33 34 35 36 37 38 39 40 41 42 43 44 45 46 47 48 49 50
668
ASUS45 KCYS 240610
RWRWY

WYOMING REGIONAL WEATHER ROUNDUP
NATIONAL WEATHER SERVICE CHEYENNE WY
1200 AM MDT SUN JUL 24 2016

NOTE:  "FAIR" INDICATES FEW OR NO CLOUDS BELOW 12,000 FEET
WITH NO SIGNIFICANT WEATHER AND/OR OBSTRUCTIONS TO VISIBILITY.

WYZ001-240700-
YELLOWSTONE NATIONAL PARK

CITY           SKY/WX    TMP DP  RH WIND       PRES   REMARKS
LK YELLOWSTONE   N/A     47  35  63 CALM      30.37R
6HR MIN TEMP:  47; 6HR MAX TEMP:  69;

W YELLOWSTONE  NOT AVBL

$$
WYZ002>013-054>058-071-098>099-240700-
NORTHERN WYOMING

CITY           SKY/WX    TMP DP  RH WIND       PRES   REMARKS
JACKSON        FAIR      48  28  46 N10       30.25R
CODY           FAIR      64  39  39 N8        30.19S
GREYBULL       FAIR      73  39  29 NW18      30.05R
6HR MIN TEMP:  73; 6HR MAX TEMP:  90;

WORLAND        FAIR      71  35  26 CALM      30.09R
6HR MIN TEMP:  69; 6HR MAX TEMP:  87;

SHERIDAN       FAIR      60  42  51 CALM      30.15R
6HR MIN TEMP:  60; 6HR MAX TEMP:  86;

BUFFALO        FAIR      64  35  34 NW7       30.21R
6HR MIN TEMP:  64; 6HR MAX TEMP:  83;

GILLETTE       FAIR      55  38  52 CALM      30.13R
6HR MIN TEMP:  55; 6HR MAX TEMP:  83;

HULETT         FAIR      64  37  36 NE5       30.15R
NEWCASTLE      FAIR      70  32  24 CALM      30.10R

$$
WYZ014>020-022>026-101>103-240700-
CENTRAL WYOMING

CITY           SKY/WX    TMP DP  RH WIND       PRES   REMARKS
BIG PINEY      FAIR      48  24  39 MISG      30.29R
6HR MIN TEMP:  48; 6HR MAX TEMP:  82;

PINEDALE       FAIR      46  30  53 NW6       30.30S
DUBOIS         FAIR      57  21  24 W8        30.28S
LANDER         FAIR      68  28  22 NW9       30.16R
6HR MIN TEMP:  67; 6HR MAX TEMP:  90;

RIVERTON       FAIR      71  38  29 NE13      30.16R
6HR MIN TEMP:  70; 6HR MAX TEMP:  91;

CASPER         FAIR      66  38  35 N16       30.12R
6HR MIN TEMP:  66; 6HR MAX TEMP:  92;

DOUGLAS          N/A    N/A N/A N/A MISG      30.11R

$$
WYZ021-027>030-104>119-240700-
SOUTHERN WYOMING

CITY           SKY/WX    TMP DP  RH WIND       PRES   REMARKS
EVANSTON       FAIR      64  20  18 E6        30.28S
6HR MIN TEMP:  62; 6HR MAX TEMP:  82;

KEMMERER         N/A     55  30  38 N12       30.29F
FORT BRIDGER   FAIR      64  16  15 W7        30.30S
ROCK SPRINGS   FAIR      64  19  17 NW5       30.24S
6HR MIN TEMP:  63; 6HR MAX TEMP:  86;

DIXON          FAIR      67  41  38 E6        30.25R
RAWLINS        FAIR      66  10  11 W7        30.22R
6HR MIN TEMP:  62; 6HR MAX TEMP:  87;

SARATOGA       FAIR      59  41  51 CALM      30.26S
LARAMIE        CLOUDY    66  45  46 S18G33    30.28R
6HR MIN TEMP:  65; 6HR MAX TEMP:  82; 6HR PCP: TRACE;

CHEYENNE       FAIR      69  47  45 S12       30.22R
6HR MIN TEMP:  69; 6HR MAX TEMP:  81; 6HR PCP: TRACE;

TORRINGTON     FAIR      72  47  40 E14       30.06R
6HR MIN TEMP:  72; 6HR MAX TEMP:  94;

PINE BLUFFS    FAIR      68  54  60 S12G21    30.16R

$$




USA.gov is the U.S. government's official web portal to all federal, state and local government web resources and services.